• Em Portugal
  • Lista de países
  • Para 7 dias
  • Temperatura da água
  • Mapas de satélite
  • Mapa do tempo
  • Widgets de tempo
  • user-avatar
    Iniciar Sessão

    Previsão horária em Beldibi

    Hoje, 23 Outubro, Segunda-feira

    Tempo Temperatura Precipitação Vento Pressão Humidade
    00:00 +21°C° 0 mm 1 m/s 760 mmHg 73%
    01:00 +21°C° 0 mm 1 m/s 759 mmHg 73%
    02:00 +20°C° 0 mm 1 m/s 759 mmHg 73%
    03:00 +20°C° 0 mm 1 m/s 759 mmHg 73%
    04:00 +20°C° 0 mm 1 m/s 759 mmHg 73%
    05:00 +20°C° 0 mm 1 m/s 759 mmHg 73%
    06:00 +21°C° 0 mm 1 m/s 759 mmHg 68%
    07:00 +22°C° 0 mm 1 m/s 759 mmHg 63%
    08:00 +23°C° 0 mm 1 m/s 759 mmHg 59%
    09:00 +24°C° 0 mm 1 m/s 759 mmHg 53%
    10:00 +26°C° 0 mm 2 m/s 759 mmHg 48%
    11:00 +27°C° 0 mm 2 m/s 759 mmHg 42%
    12:00 +27°C° 0 mm 2 m/s 758 mmHg 44%
    13:00 +27°C° 0 mm 3 m/s 758 mmHg 45%
    14:00 +27°C° 0 mm 3 m/s 758 mmHg 47%
    15:00 +26°C° 0 mm 3 m/s 758 mmHg 54%
    16:00 +25°C° 0 mm 2 m/s 758 mmHg 62%
    17:00 +23°C° 0 mm 2 m/s 758 mmHg 69%
    18:00 +23°C° 0 mm 2 m/s 758 mmHg 73%
    19:00 +22°C° 0 mm 1 m/s 758 mmHg 77%
    20:00 +21°C° 0 mm 1 m/s 758 mmHg 81%
    21:00 +21°C° 0,1 mm 1 m/s 758 mmHg 81%
    22:00 +21°C° 0,1 mm 1 m/s 758 mmHg 81%
    23:00 +21°C° 0,1 mm 1 m/s 758 mmHg 81%

    Amanhã, 24 Outubro, Terça-feira

    Tempo Temperatura Precipitação Vento Pressão Humidade
    00:00 +21°C° 0,1 mm 1 m/s 758 mmHg 81%
    01:00 +21°C° 0,1 mm 1 m/s 758 mmHg 80%
    02:00 +19°C° 0,1 mm 2 m/s 758 mmHg 79%
    03:00 +19°C° 0,1 mm 2 m/s 757 mmHg 79%
    04:00 +19°C° 0,1 mm 2 m/s 757 mmHg 80%
    05:00 +19°C° 0,1 mm 2 m/s 757 mmHg 80%
    06:00 +19°C° 0,1 mm 2 m/s 757 mmHg 77%
    07:00 +20°C° 0,1 mm 2 m/s 757 mmHg 74%
    08:00 +21°C° 0,1 mm 3 m/s 757 mmHg 72%
    09:00 +21°C° 0,3 mm 3 m/s 757 mmHg 70%
    10:00 +22°C° 0,3 mm 4 m/s 757 mmHg 69%
    11:00 +22°C° 0,3 mm 4 m/s 757 mmHg 67%
    12:00 +22°C° 1,2 mm 4 m/s 757 mmHg 71%
    13:00 +21°C° 1,2 mm 4 m/s 756 mmHg 75%
    14:00 +21°C° 1,2 mm 5 m/s 756 mmHg 79%
    15:00 +21°C° 3,2 mm 5 m/s 756 mmHg 82%
    16:00 +20°C° 3,2 mm 4 m/s 756 mmHg 85%
    17:00 +20°C° 3,2 mm 4 m/s 756 mmHg 88%
    18:00 +20°C° 3,9 mm 4 m/s 756 mmHg 88%
    19:00 +20°C° 3,9 mm 5 m/s 757 mmHg 88%
    20:00 +20°C° 3,9 mm 5 m/s 757 mmHg 87%
    21:00 +20°C° 1,9 mm 4 m/s 757 mmHg 88%
    22:00 +20°C° 1,9 mm 4 m/s 758 mmHg 88%
    23:00 +20°C° 1,9 mm 4 m/s 758 mmHg 88%

    Depois de amanhã, 25 Outubro, Quarta-feira

    Tempo Temperatura Precipitação Vento Pressão Humidade
    00:00 +20°C° 1,3 mm 4 m/s 758 mmHg 88%
    01:00 +20°C° 1,3 mm 3 m/s 758 mmHg 87%
    02:00 +20°C° 1,3 mm 3 m/s 758 mmHg 87%
    03:00 +20°C° 0,9 mm 3 m/s 758 mmHg 87%
    04:00 +19°C° 0,9 mm 3 m/s 758 mmHg 87%
    05:00 +19°C° 0,9 mm 2 m/s 758 mmHg 88%
    06:00 +19°C° 0,7 mm 2 m/s 759 mmHg 85%
    07:00 +20°C° 0,7 mm 3 m/s 759 mmHg 82%
    08:00 +20°C° 0,7 mm 3 m/s 760 mmHg 80%
    09:00 +21°C° 0,8 mm 3 m/s 760 mmHg 76%
    10:00 +21°C° 0,8 mm 3 m/s 760 mmHg 73%
    11:00 +22°C° 0,8 mm 3 m/s 761 mmHg 70%
    12:00 +21°C° 0,9 mm 3 m/s 761 mmHg 69%
    13:00 +21°C° 0,9 mm 3 m/s 761 mmHg 69%
    14:00 +21°C° 0,9 mm 3 m/s 761 mmHg 68%
    15:00 +21°C° 0,9 mm 2 m/s 761 mmHg 71%
    16:00 +20°C° 0,9 mm 2 m/s 761 mmHg 74%
    17:00 +20°C° 0,9 mm 2 m/s 762 mmHg 77%
    18:00 +19°C° 0,6 mm 2 m/s 762 mmHg 79%
    19:00 +20°C° 0,6 mm 1 m/s 763 mmHg 81%
    20:00 +19°C° 0,6 mm 1 m/s 763 mmHg 83%
    21:00 +19°C° 0,3 mm 1 m/s 763 mmHg 84%
    22:00 +18°C° 0,3 mm 2 m/s 763 mmHg 85%
    23:00 +17°C° 0,3 mm 2 m/s 764 mmHg 86%

    26 Outubro, Quinta-feira

    Tempo Temperatura Precipitação Vento Pressão Humidade
    00:00 +17°C° 0 mm 2 m/s 764 mmHg 85%
    01:00 +17°C° 0 mm 2 m/s 764 mmHg 85%
    02:00 +17°C° 0 mm 2 m/s 764 mmHg 84%
    03:00 +17°C° 0 mm 2 m/s 764 mmHg 83%
    04:00 +17°C° 0 mm 2 m/s 764 mmHg 82%
    05:00 +17°C° 0 mm 2 m/s 764 mmHg 80%
    06:00 +18°C° 0 mm 2 m/s 764 mmHg 76%
    07:00 +19°C° 0 mm 2 m/s 765 mmHg 72%
    08:00 +20°C° 0 mm 2 m/s 765 mmHg 68%
    09:00 +21°C° 0 mm 2 m/s 765 mmHg 61%
    10:00 +23°C° 0 mm 2 m/s 765 mmHg 54%
    11:00 +24°C° 0 mm 2 m/s 765 mmHg 48%
    12:00 +25°C° 0 mm 2 m/s 765 mmHg 47%
    13:00 +25°C° 0 mm 2 m/s 764 mmHg 46%
    14:00 +26°C° 0 mm 2 m/s 764 mmHg 44%
    15:00 +25°C° 0 mm 2 m/s 764 mmHg 49%
    16:00 +24°C° 0 mm 2 m/s 764 mmHg 54%
    17:00 +23°C° 0 mm 2 m/s 764 mmHg 59%
    18:00 +21°C° 0 mm 2 m/s 764 mmHg 59%
    19:00 +21°C° 0 mm 2 m/s 765 mmHg 59%
    20:00 +20°C° 0 mm 2 m/s 765 mmHg 60%
    21:00 +20°C° 0 mm 2 m/s 765 mmHg 61%
    22:00 +20°C° 0 mm 2 m/s 765 mmHg 62%
    23:00 +19°C° 0 mm 2 m/s 765 mmHg 64%

    27 Outubro, Sexta-feira

    Tempo Temperatura Precipitação Vento Pressão Humidade
    00:00 +19°C° 0 mm 2 m/s 765 mmHg 65%
    01:00 +19°C° 0 mm 2 m/s 765 mmHg 66%
    02:00 +19°C° 0 mm 2 m/s 764 mmHg 67%
    03:00 +18°C° 0 mm 2 m/s 764 mmHg 68%
    04:00 +18°C° 0 mm 3 m/s 764 mmHg 69%
    05:00 +18°C° 0 mm 3 m/s 764 mmHg 70%
    06:00 +19°C° 0 mm 3 m/s 764 mmHg 67%
    07:00 +20°C° 0 mm 3 m/s 764 mmHg 63%
    08:00 +21°C° 0 mm 2 m/s 764 mmHg 60%
    09:00 +23°C° 0 mm 2 m/s 763 mmHg 54%
    10:00 +24°C° 0 mm 2 m/s 763 mmHg 49%
    11:00 +25°C° 0 mm 2 m/s 763 mmHg 44%
    12:00 +26°C° 0 mm 2 m/s 762 mmHg 43%
    13:00 +26°C° 0 mm 2 m/s 762 mmHg 42%
    14:00 +26°C° 0 mm 1 m/s 761 mmHg 41%
    15:00 +25°C° 0 mm 1 m/s 761 mmHg 46%
    16:00 +24°C° 0 mm 1 m/s 761 mmHg 51%
    17:00 +23°C° 0 mm 1 m/s 760 mmHg 56%
    18:00 +22°C° 0 mm 1 m/s 760 mmHg 58%
    19:00 +21°C° 0 mm 1 m/s 760 mmHg 60%
    20:00 +21°C° 0 mm 1 m/s 760 mmHg 62%
    21:00 +20°C° 0 mm 1 m/s 760 mmHg 62%
    22:00 +20°C° 0 mm 1 m/s 760 mmHg 63%
    23:00 +20°C° 0 mm 1 m/s 760 mmHg 64%

    28 Outubro, Sábado

    Tempo Temperatura Precipitação Vento Pressão Humidade
    00:00 +20°C° 0 mm 1 m/s 760 mmHg 64%
    01:00 +19°C° 0 mm 1 m/s 759 mmHg 64%
    02:00 +19°C° 0 mm 1 m/s 759 mmHg 64%
    03:00 +19°C° 0 mm 1 m/s 759 mmHg 63%
    04:00 +19°C° 0 mm 1 m/s 759 mmHg 63%
    05:00 +19°C° 0 mm 1 m/s 759 mmHg 63%
    06:00 +20°C° 0 mm 1 m/s 759 mmHg 59%
    07:00 +21°C° 0 mm 1 m/s 759 mmHg 56%
    08:00 +22°C° 0 mm 1 m/s 759 mmHg 52%
    09:00 +23°C° 0 mm 1 m/s 759 mmHg 48%
    10:00 +24°C° 0 mm 1 m/s 759 mmHg 44%
    11:00 +25°C° 0 mm 2 m/s 758 mmHg 41%
    12:00 +25°C° 0 mm 2 m/s 758 mmHg 41%
    13:00 +25°C° 0 mm 2 m/s 758 mmHg 42%
    14:00 +25°C° 0 mm 2 m/s 757 mmHg 43%
    15:00 +24°C° 0 mm 2 m/s 757 mmHg 48%
    16:00 +23°C° 0 mm 2 m/s 757 mmHg 54%
    17:00 +21°C° 0 mm 2 m/s 758 mmHg 60%
    18:00 +20°C° 0 mm 2 m/s 758 mmHg 63%
    19:00 +21°C° 0 mm 1 m/s 758 mmHg 66%
    20:00 +20°C° 0 mm 1 m/s 758 mmHg 69%
    21:00 +20°C° 0 mm 1 m/s 758 mmHg 70%
    22:00 +20°C° 0 mm 1 m/s 758 mmHg 70%
    23:00 +19°C° 0 mm 1 m/s 758 mmHg 71%

    29 Outubro, Domingo

    Tempo Temperatura Precipitação Vento Pressão Humidade
    00:00 +19°C° 0 mm 1 m/s 758 mmHg 71%
    01:00 +19°C° 0 mm 1 m/s 758 mmHg 71%
    02:00 +19°C° 0 mm 1 m/s 758 mmHg 72%
    03:00 +18°C° 0 mm 1 m/s 757 mmHg 72%
    04:00 +18°C° 0 mm 1 m/s 757 mmHg 73%
    05:00 +18°C° 0 mm 1 m/s 757 mmHg 73%
    06:00 +19°C° 0 mm 1 m/s 757 mmHg 70%
    07:00 +20°C° 0 mm 1 m/s 757 mmHg 67%
    08:00 +21°C° 0 mm 1 m/s 757 mmHg 64%
    09:00 +21°C° 0 mm 2 m/s 757 mmHg 61%
    10:00 +23°C° 0 mm 2 m/s 757 mmHg 58%
    11:00 +24°C° 0 mm 3 m/s 757 mmHg 55%
    12:00 +24°C° 0,1 mm 3 m/s 756 mmHg 56%
    13:00 +23°C° 0,1 mm 4 m/s 756 mmHg 58%
    14:00 +23°C° 0,1 mm 4 m/s 755 mmHg 59%
    15:00 +22°C° 0,3 mm 4 m/s 755 mmHg 65%
    16:00 +21°C° 0,3 mm 4 m/s 755 mmHg 70%
    17:00 +21°C° 0,3 mm 4 m/s 755 mmHg 76%
    18:00 +20°C° 0,4 mm 3 m/s 755 mmHg 78%
    19:00 +20°C° 0,4 mm 3 m/s 755 mmHg 81%
    20:00 +19°C° 0,4 mm 2 m/s 755 mmHg 83%
    21:00 +19°C° 0,2 mm 3 m/s 756 mmHg 84%
    22:00 +19°C° 0,2 mm 3 m/s 756 mmHg 84%
    23:00 +18°C° 0,2 mm 3 m/s 756 mmHg 84%
    Mostrar mais